Location: Quispamsis
(45.4447°N, 65.9414°W)
Time: 14:01:44
(UTC-04:00)

Daily predictions for brighter satellites

Satellite Brightness Start Highest point End
(mag) Time Altitude Azimuth Time Altitude Azimuth Time Altitude Azimuth
NOSS 3-3 (C) 4.5 17:30:18 10° S 17:35:59 44° ESE 17:42:12 10° NE
Cosmos 1603 3.8 17:32:41 10° SSW 17:38:23 69° ESE 17:44:07 10° NNE
Nadezhda 1 Rocket 4.0 17:32:59 10° S 17:39:11 80° E 17:45:33 10° N
Cosmos 1943 3.8 17:34:06 10° S 17:39:16 39° ESE 17:44:26 10° NE
Cosmos 1400 Rocket 4.1 17:37:07 10° SE 17:40:13 22° E 17:43:24 10° NE
METEOR-M 4.5 17:35:59 10° SE 17:41:01 43° ENE 17:46:04 10° N
Cosmos 1726 2.7 17:40:59 10° N 17:44:21 33° ENE 17:47:42 10° SE
Cosmos 1842 Rocket 3.5 17:40:31 10° N 17:45:00 77° E 17:49:24 10° SSE
TELKOM 3 3.1 17:43:10 10° W 17:45:18 53° NNW 17:47:27 10° ENE
SeaSat 1 3.6 17:41:00 10° S 17:45:47 50° WSW 17:50:36 10° NW
NOSS 7 (E) 4.4 17:43:52 10° SW 17:47:21 84° NW 17:50:39 10° NE
Cosmos 2237 Rocket 4.3 17:44:06 10° W 17:48:14 20° NW 17:52:23 10° N
Cosmos 1461 4.5 17:44:27 10° WSW 17:48:21 32° NW 17:52:27 10° NNE
Cosmos 2084 3.5 17:45:11 10° NW 17:48:58 70° SW 17:52:49 10° SSE
Cosmos 2341 Rocket 4.1 17:44:42 10° N 17:50:54 59° ENE 17:57:05 10° SSE
CZ-2C R/B 4.2 17:46:40 10° NNE 17:51:09 41° E 17:55:34 10° S
USA 116 4.3 17:48:34 10° NNE 17:52:32 45° E 17:56:59 10° S
Meteor 2-10 4.2 17:52:48 10° N 17:57:40 48° ENE 18:02:34 10° SSE
Cosmos 1354 Rocket 4.2 17:53:48 10° NNW 17:59:08 84° WSW 18:04:27 10° SSE
SMAP 3.4 17:57:53 10° S 18:02:32 71° WSW 18:07:12 10° NNW
Cosmos 2263 4.2 18:00:50 10° NNW 18:06:38 72° ENE 18:12:21 10° SSE
Cosmos 1674 2.8 18:03:58 10° S 18:07:44 80° W 18:11:30 10° N
Ariane Rocket 3.4 18:02:43 10° S 18:07:45 71° WSW 18:12:50 10° NNW
Cosmos 2154 Rocket 4.3 18:01:54 10° NNW 18:08:12 74° W 18:14:30 10° S
Okean 3 Rocket 4.1 18:04:00 10° SSE 18:08:13 40° E 18:12:28 10° NNE
SPOT 3 Rocket 3.9 18:05:57 10° SE 18:10:44 41° ENE 18:15:34 10° N
CZ-4 R/B 1.8 18:09:35 10° S 18:13:48 74° WSW 18:18:04 10° NNW
Landsat 4 4.3 18:10:47 10° NNE 18:14:16 36° E 18:17:43 10° SSE
Cosmos 2369 Rocket 2.5 18:11:25 10° NNW 18:17:04 72° WSW 18:22:43 10° SSE
SKYMED 2 3.7 18:13:14 10° NNE 18:17:29 51° E 18:21:42 10° S
Cosmos 2181 Rocket 4.0 18:12:13 10° S 18:18:37 70° E 18:25:00 10° NNE
USA 215 4.3 18:14:59 12° NE 18:20:16 33° N 18:25:57 10° WNW
BREEZE-M R/B 4.1 18:19:27 10° SW 18:23:46 73° SE 18:36:14 16° ENE
SL-14 R/B 3.4 18:21:32 10° S 18:25:25 50° E 18:29:16 10° NNE
Meteor 2-16 Rocket 4.4 18:19:40 10° N 18:25:48 81° E 18:31:55 10° S
YAOGAN 1 2.8 18:24:21 10° S 18:28:39 73° WSW 18:33:01 10° NNW
Cosmos 1300 2.6 18:26:11 10° N 18:30:01 68° E 18:33:50 10° SSE
GEOS 3 Rocket 4.0 18:25:26 10° ESE 18:30:31 47° NE 18:35:40 10° NNW
Cosmos 1626 3.1 18:27:49 10° SE 18:30:53 25° E 18:31:12 24° E
Cosmos 1656 Rocket 3.8 18:28:04 10° NNW 18:33:21 47° ENE 18:38:39 10° SE
Cosmos 1943 Rocket 2.4 18:30:39 10° NNW 18:36:16 76° WSW 18:41:48 10° SSE
NOSS 2-1 (C) 3.9 18:32:42 10° SW 18:36:20 52° NW 18:39:39 15° NNE
NOSS 2-1 (D) 4.0 18:33:22 10° WSW 18:36:59 50° NW 18:40:17 15° NNE
SL-8 Rocket 4.0 18:33:40 10° N 18:39:53 88° E 18:46:06 10° S
Cosmos 1992 Rocket 4.3 18:35:09 10° SSW 18:40:19 67° WNW 18:45:32 10° NNE
Cosmos 2218 Rocket 3.9 18:34:34 10° N 18:40:47 76° E 18:46:54 10° SSE
PKM 3.8 18:40:59 10° NW 18:43:36 42° NNE 18:44:15 36° ENE
Cosmos 1315 Rocket 2.8 18:40:49 10° S 18:44:39 54° E 18:47:09 20° NNE
Cosmos 2098 Rocket 3.9 18:40:51 10° N 18:45:26 41° ENE 18:51:06 10° SSE
ALOS 2.4 18:41:43 10° S 18:46:23 79° WSW 18:51:05 10° NNW
ERS-2 2.0 18:43:02 10° SSE 18:46:41 66° ENE 18:50:21 10° N
NOAA 12 4.0 18:42:16 10° SSE 18:47:30 90° WSW 18:52:48 10° NNW
Cosmos 1346 Rocket 3.1 18:45:25 10° N 18:49:08 39° ENE 18:50:29 29° ESE
Cosmos 1959 Rocket 4.5 18:43:57 10° N 18:50:18 88° ENE 18:56:40 10° S
Cosmos 2221 3.9 18:49:06 10° NNW 18:53:13 41° W 18:57:20 10° SSW
ATLAS 2AS CENTAUR R/B 4.0 18:47:37 10° NW 18:55:06 47° WSW 19:02:01 10° S
BREEZE-M DEB (TANK) 1.7 18:50:40 10° WSW 18:55:09 69° SSE 18:55:33 57° ESE
Cosmos 968 Rocket 4.1 18:52:08 10° NNW 18:57:12 57° WSW 19:02:11 10° S
SL-08 R/B 4.4 18:51:26 10° N 18:57:41 83° E 19:03:49 10° S
FENGYUN 3A 4.0 18:54:44 10° S 19:00:02 65° WSW 19:05:23 10° NNW
COSMOS 2406 4.1 18:57:25 10° SSE 19:01:41 28° ESE 19:01:41 28° ESE
FengYun 1-2 T 4.2 18:57:12 10° SSE 19:02:47 69° ENE 19:08:22 10° N
Tiangong 1 2.0 19:00:30 10° WSW 19:02:20 34° SW 19:02:20 34° SW
Cosmos 1408 Rocket 3.3 19:00:12 10° S 19:04:29 73° E 19:07:08 23° NNE
COSMO-SKYMED 1 3.4 19:01:19 10° N 19:05:32 50° WNW 19:09:44 10° SSW
Cosmos 2228 Rocket 3.3 19:03:32 10° N 19:07:44 47° ENE 19:07:44 47° ENE
Meteor 2-2 Rocket 4.3 19:03:21 10° NNW 19:09:09 84° W 19:14:49 10° S
SL-24 R/B - RUBIN 2 3.4 19:05:07 10° NW 19:09:44 87° NE 19:11:35 34° SE
DMSP B5D1-3 4.5 19:04:44 10° NNE 19:09:51 86° WNW 19:14:57 10° SSW
H-2A R/B 2.6 19:07:18 10° SSE 19:11:05 88° WSW 19:14:58 10° NNW
ATLAS 5 CENTAUR R/B 4.3 19:09:20 10° NNW 19:11:08 12° N 19:12:36 11° NNE
Cosmos 1241 Rocket 4.5 19:08:30 10° NNW 19:14:38 56° NE 19:16:41 39° ESE
Cosmos 1328 4.1 19:11:53 10° SSW 19:15:52 65° W 19:18:42 19° N
NOSS 3-4 (A) 3.7 19:10:56 10° NW 19:17:57 87° NE 19:24:32 14° SE
NOSS 3-4 (C) 3.7 19:11:02 10° NW 19:18:03 86° NE 19:24:30 15° SE
Cosmos 2366 rocket 4.5 19:14:31 10° NNW 19:20:40 61° W 19:26:45 10° S
Envisat 4.0 19:23:10 31° NNE 19:23:10 31° NNE 19:26:07 10° N
Cosmos 1821 Rocket 3.9 19:21:37 10° N 19:27:39 55° ENE 19:29:42 39° SE
Thor Agena Rocket 3.5 19:30:23 62° E 19:30:26 62° ESE 19:35:36 10° S
Cosmos 909 Rocket 4.0 19:25:08 10° NNW 19:32:10 65° NE 19:33:40 51° ESE
Cosmos 1328 Rocket 3.8 19:31:30 10° NNW 19:35:52 67° W 19:40:10 10° S
Cosmos 44 3.2 19:31:53 10° SSW 19:35:33 64° SSW 19:35:33 64° SSW
Nadezhda 3 Rocket 3.9 19:33:00 10° S 19:39:18 81° E 19:45:42 10° N
Cosmos 44 Rocket 3.9 19:52:33 10° SW 19:55:59 49° SW 19:55:59 49° SW
USA 215 4.0 20:02:20 37° NNE 20:02:20 37° NNE 20:08:10 10° NW
USA 81 4.3 19:57:25 10° SSW 20:02:38 67° W 20:02:38 67° W
Cosmos 1626 4.5 20:03:11 10° SW 20:05:54 22° W 20:05:54 22° W
